| time (UTC) | temp F | wind direction | speed MPH | gust MPH | rain 1hr in | rain 24hr in | rain mn in | humidity % | barometer mb |
| 20260506040042 | 45 | 350 | 0.0 | 0.0 | 0.01 | 0.36 | 0.36 | 90 | 1015.6 |
| 20260506034533 | 45 | 355 | 1.0 | 4.0 | 0.01 | 0.36 | 0.36 | 90 | 1015.4 |
| 20260506033031 | 45 | 354 | 0.0 | 0.0 | 0.00 | 0.35 | 0.35 | 90 | 1015.8 |
| 20260506031534 | 45 | 5 | 0.0 | 2.0 | 0.00 | 0.35 | 0.35 | 89 | 1015.2 |
| 20260506030026 | 45 | 32 | 0.0 | 2.0 | 0.01 | 0.35 | 0.35 | 89 | 1014.6 |
| 20260506024531 | 45 | 22 | 1.0 | 2.0 | 0.01 | 0.35 | 0.35 | 89 | 1014.5 |
| 20260506023020 | 45 | 45 | 0.0 | 2.0 | 0.01 | 0.35 | 0.35 | 89 | 1014.1 |
| 20260506021518 | 45 | 111 | 0.0 | 2.0 | 0.04 | 0.35 | 0.35 | 89 | 1014.1 |
| 20260506020015 | 45 | 42 | 3.0 | 5.0 | 0.06 | 0.34 | 0.34 | 89 | 1014.6 |
| 20260506014512 | 45 | 63 | 2.0 | 7.0 | 0.08 | 0.34 | 0.34 | 89 | 1014.2 |
| 20260506013009 | 45 | 66 | 0.0 | 5.0 | 0.09 | 0.33 | 0.33 | 89 | 1014.1 |
| 20260506011507 | 45 | 43 | 0.0 | 2.0 | 0.11 | 0.31 | 0.31 | 89 | 1013.9 |
| 20260506010003 | 45 | 334 | 1.0 | 6.0 | 0.11 | 0.27 | 0.27 | 88 | 1014.3 |
| 20260506004628 | 45 | 356 | 3.0 | 9.0 | 0.11 | 0.26 | 0.26 | 88 | 1013.6 |
| 20260506003057 | 46 | 3 | 5.0 | 10.0 | 0.09 | 0.24 | 0.24 | 88 | 1013.5 |
| 20260506001551 | 46 | 1 | 2.0 | 6.0 | 0.06 | 0.20 | 0.20 | 88 | 1013.6 |
| 20260506000050 | 46 | 55 | 2.0 | 5.0 | 0.03 | 0.16 | 0.16 | 88 | 1013.0 |
| 20260505234608 | 46 | 346 | 2.0 | 5.0 | 0.04 | 0.15 | 0.15 | 88 | 1013.1 |
| 20260505233042 | 46 | 45 | 1.0 | 7.0 | 0.04 | 0.15 | 0.15 | 87 | 1012.8 |
| 20260505231540 | 46 | 42 | 3.0 | 9.0 | 0.03 | 0.14 | 0.14 | 86 | 1012.7 |
| 20260505230036 | 46 | 346 | 3.0 | 9.0 | 0.02 | 0.12 | 0.12 | 85 | 1013.1 |
| 20260505224534 | 47 | 20 | 4.0 | 9.0 | 0.04 | 0.11 | 0.11 | 85 | 1012.0 |
| 20260505223030 | 47 | 355 | 2.0 | 4.0 | 0.04 | 0.11 | 0.11 | 84 | 1012.0 |
| 20260505221529 | 47 | 337 | 0.0 | 2.0 | 0.04 | 0.11 | 0.11 | 84 | 1012.2 |
| 20260505220026 | 48 | 359 | 1.0 | 5.0 | 0.03 | 0.10 | 0.10 | 83 | 1012.0 |
| 20260505214525 | 48 | 31 | 0.0 | 9.0 | 0.00 | 0.07 | 0.07 | 82 | 1012.2 |
| 20260505213023 | 48 | 55 | 5.0 | 10.0 | 0.00 | 0.07 | 0.07 | 80 | 1012.0 |
| 20260505211519 | 48 | 40 | 3.0 | 9.0 | 0.00 | 0.07 | 0.07 | 81 | 1012.3 |
| 20260505210116 | 48 | 78 | 4.0 | 9.0 | 0.00 | 0.07 | 0.07 | 80 | 1012.1 |
| 20260505204523 | 48 | 44 | 2.0 | 7.0 | 0.00 | 0.07 | 0.07 | 80 | 1012.6 |
| 20260505203012 | 48 | 46 | 2.0 | 8.0 | 0.00 | 0.07 | 0.07 | 79 | 1012.7 |
| 20260505201510 | 49 | 32 | 4.0 | 9.0 | 0.00 | 0.07 | 0.07 | 75 | 1013.0 |
| 20260505200019 | 49 | 36 | 3.0 | 10.0 | 0.00 | 0.07 | 0.07 | 73 | 1012.4 |
| 20260505194507 | 49 | 354 | 4.0 | 13.0 | 0.00 | 0.08 | 0.07 | 73 | 1013.2 |
| 20260505193009 | 50 | 57 | 4.0 | 13.0 | 0.00 | 0.08 | 0.07 | 69 | 1013.2 |
| 20260505191503 | 51 | 12 | 8.0 | 18.0 | 0.00 | 0.08 | 0.07 | 67 | 1013.1 |
| 20260505190107 | 52 | 334 | 6.0 | 12.0 | 0.00 | 0.08 | 0.07 | 67 | 1012.7 |
| 20260505184557 | 53 | 45 | 5.0 | 15.0 | 0.00 | 0.08 | 0.07 | 66 | 1012.4 |
| 20260505183055 | 53 | 59 | 4.0 | 12.0 | 0.00 | 0.08 | 0.07 | 68 | 1012.1 |
| 20260505181552 | 52 | 40 | 3.0 | 10.0 | 0.00 | 0.08 | 0.07 | 69 | 1012.5 |
| 20260505180049 | 52 | 17 | 3.0 | 9.0 | 0.00 | 0.08 | 0.07 | 71 | 1012.4 |
| 20260505174549 | 52 | 61 | 2.0 | 8.0 | 0.00 | 0.08 | 0.07 | 72 | 1013.2 |
| 20260505173049 | 53 | 340 | 3.0 | 9.0 | 0.00 | 0.08 | 0.07 | 71 | 1013.5 |
| 20260505171542 | 54 | 51 | 3.0 | 8.0 | 0.00 | 0.08 | 0.07 | 68 | 1012.7 |
| 20260505170041 | 54 | 63 | 3.0 | 7.0 | 0.00 | 0.08 | 0.07 | 63 | 1012.6 |
| 20260505164540 | 55 | 39 | 4.0 | 8.0 | 0.00 | 0.08 | 0.07 | 61 | 1012.8 |
| 20260505163035 | 57 | 24 | 1.0 | 9.0 | 0.00 | 0.08 | 0.07 | 61 | 1011.9 |
| 20260505161534 | 56 | 140 | 1.0 | 8.0 | 0.00 | 0.08 | 0.07 | 64 | 1011.7 |
| 20260505153026 | 53 | 56 | 4.0 | 8.0 | 0.00 | 0.08 | 0.07 | 82 | 1012.0 |
| 20260505151523 | 51 | 121 | 1.0 | 8.0 | 0.00 | 0.08 | 0.07 | 89 | 1011.9 |
| 20260505124604 | 0 | 0.0 | 0.0 | 0.00 | 0.07 | 0.06 | 1010.2 | ||
| 20260505123053 | 0 | 0.0 | 0.0 | 0.00 | 0.07 | 0.06 | 1011.8 | ||
| 20260505121547 | 0 | 0.0 | 0.0 | 0.00 | 0.07 | 0.06 | 1012.4 | ||
| 20260505120049 | 0 | 0.0 | 0.0 | 0.00 | 0.07 | 0.06 | 1011.9 | ||
| 20260505114537 | 0 | 0.0 | 0.0 | 0.01 | 0.07 | 0.06 | 1011.1 | ||
| 20260505113033 | 0 | 0.0 | 0.0 | 0.01 | 0.07 | 0.06 | 1010.5 | ||
| 20260505111526 | 0 | 0.0 | 0.0 | 0.06 | 0.07 | 0.06 | 1010.5 | ||
| 20260505101504 | 63 | 9 | 4.0 | 19.0 | 0.00 | 0.01 | 0.00 | 85 | 1008.6 |
| 20260505100057 | 64 | 63 | 6.0 | 15.0 | 0.00 | 0.01 | 0.00 | 84 | 1008.2 |
| 20260505094551 | 66 | 58 | 7.0 | 11.0 | 0.00 | 0.01 | 0.00 | 83 | 1008.1 |
| 20260505093048 | 66 | 186 | 0.0 | 0.0 | 0.00 | 0.01 | 0.00 | 84 | 1007.5 |
| 20260505091550 | 66 | 186 | 0.0 | 0.0 | 0.00 | 0.01 | 0.00 | 83 | 1007.3 |
| 20260505090047 | 67 | 186 | 0.0 | 0.0 | 0.00 | 0.01 | 0.00 | 82 | 1007.5 |
| 20260505084544 | 68 | 187 | 0.0 | 2.0 | 0.00 | 0.01 | 0.00 | 81 | 1007.4 |
| 20260505083033 | 68 | 190 | 0.0 | 0.0 | 0.00 | 0.01 | 0.00 | 80 | 1007.3 |
| 20260505081531 | 68 | 154 | 2.0 | 4.0 | 0.00 | 0.01 | 0.00 | 79 | 1007.5 |
| 20260505080027 | 68 | 179 | 1.0 | 4.0 | 0.00 | 0.01 | 0.00 | 79 | 1007.6 |
| 20260505074525 | 69 | 77 | 4.0 | 8.0 | 0.00 | 0.01 | 0.00 | 79 | 1008.0 |
| 20260505073032 | 69 | 245 | 2.0 | 10.0 | 0.00 | 0.01 | 0.00 | 79 | 1007.1 |
| 20260505071518 | 69 | 289 | 1.0 | 8.0 | 0.00 | 0.01 | 0.00 | 78 | 1007.3 |
| 20260505070026 | 69 | 191 | 0.0 | 11.0 | 0.00 | 0.01 | 0.00 | 78 | 1007.1 |
| 20260505064512 | 70 | 227 | 1.0 | 8.0 | 0.00 | 0.01 | 0.00 | 77 | 1006.8 |
| 20260505063011 | 70 | 239 | 2.0 | 13.0 | 0.00 | 0.01 | 0.00 | 77 | 1006.9 |
| 20260505061506 | 70 | 169 | 4.0 | 9.0 | 0.00 | 0.01 | 0.00 | 76 | 1006.7 |
| 20260505060003 | 70 | 196 | 2.0 | 10.0 | 0.00 | 0.01 | 0.00 | 76 | 1006.8 |
| 20260505054611 | 71 | 268 | 4.0 | 11.0 | 0.00 | 0.01 | 0.00 | 75 | 1006.7 |
| 20260505053100 | 71 | 285 | 3.0 | 11.0 | 0.00 | 0.01 | 0.00 | 75 | 1006.4 |
| 20260505051552 | 71 | 59 | 4.0 | 13.0 | 0.00 | 0.01 | 0.00 | 74 | 1006.3 |
| 20260505041551 | 72 | 177 | 3.0 | 14.0 | 0.00 | 0.01 | 0.01 | 74 | 1006.4 |